Weather History for Morristown, NJ

Change the Weather History Date:

Wednesday, May 16, 2012

  Actual Average Record
Temperature  
Mean Temperature 70 °F -  
Max Temperature 80 °F 71 °F 89 °F (1998)
Min Temperature 60 °F 46 °F 28 °F (1935)
Cooling Degree Days 5    
Growing Degree Days 20 (Base 50)    
Moisture  
Dew Point 61 °F    
Average Humidity 83    
Maximum Humidity 100    
Minimum Humidity 39    
Precipitation  
Precipitation 0.01 in - - ()
Sea Level Pressure  
Sea Level Pressure 29.89 in    
Wind  
Wind Speed 2 mph (WSW)    
Max Wind Speed 12 mph    
Max Gust Speed 17 mph    
Visibility 5 miles    
Events Fog , Rain , Thunderstorm    
Averages and records for this station are not official NWS values.
T = Trace of Precipitation, MM = Missing Value Source: NWS Daily Summary

Daily Weather History Graph

Daily Weather History Graph

Search for Another Location

Airport:

Trip Planner

Search our weather history database for the weather conditions in past years. The results will help you decide how hot, cold, wet, or windy it might be!

Date:

Astronomy

May. 16, 2012 Rise Set
Actual Time 5:39 AM EDT 8:09 PM EDT
Civil Twilight 5:07 AM EDT 8:41 PM EDT
Nautical Twilight 4:28 AM EDT 9:20 PM EDT
Astronomical Twilight 3:45 AM EDT 10:03 PM EDT
Moon 3:08 AM EDT (5/16) 4:21 PM EDT (5/16)
Length of Visible Light 15h 33m
Length of Day
14h 30m
Waning Crescent, 16% of the Moon is Illuminated
May 16
Waning Crescent
May 20
New
May 28
First Quarter
Jun 4
Full
Jun 11
Last Quarter

Hourly Weather History & Observations

Time (EDT) Temp. Heat Index Dew Point Humidity Pressure Visibility Wind Dir Wind Speed Gust Speed Precip Events Conditions
12:15 AM 62.6 °F - 62.6 °F 100% 29.95 in 1.5 mi Calm Calm - N/A Rain Light Rain
12:35 AM 62.6 °F - 62.6 °F 100% 29.94 in 1.2 mi Calm Calm - N/A Rain Rain
12:55 AM 62.6 °F - 62.6 °F 100% 29.94 in 1.8 mi Calm Calm - N/A   Overcast
1:15 AM 62.6 °F - 62.6 °F 100% 29.92 in 0.8 mi Calm Calm - N/A   Overcast
1:35 AM 62.6 °F - 62.6 °F 100% 29.91 in 1.2 mi Calm Calm - 0.01 in   Overcast
1:55 AM 62.6 °F - 62.6 °F 100% 29.90 in 1.5 mi Calm Calm - N/A   Overcast
2:15 AM 62.6 °F - 62.6 °F 100% 29.91 in 1.0 mi Calm Calm - N/A   Overcast
2:35 AM 62.6 °F - 62.6 °F 100% 29.90 in 0.8 mi Calm Calm - N/A Rain Rain
2:55 AM 62.6 °F - 62.6 °F 100% 29.91 in 1.5 mi WSW 3.5 mph - N/A Rain , Thunderstorm Light Thunderstorms and Rain
3:15 AM 62.6 °F - 62.6 °F 100% 29.90 in 1.5 mi Calm Calm - N/A   Overcast
3:35 AM 62.6 °F - 62.6 °F 100% 29.90 in 2.5 mi Calm Calm - N/A   Light Drizzle
3:55 AM 62.6 °F - 62.6 °F 100% 29.90 in 1.8 mi Calm Calm - N/A Rain Rain
4:15 AM 62.6 °F - 62.6 °F 100% 29.90 in 1.8 mi Calm Calm - N/A Rain Light Rain
4:35 AM 62.6 °F - 62.6 °F 100% 29.90 in 1.5 mi Calm Calm - N/A Rain Rain
4:55 AM 62.6 °F - 62.6 °F 100% 29.90 in 0.8 mi Calm Calm - N/A Rain Light Rain
5:15 AM 62.6 °F - 62.6 °F 100% 29.90 in 0.5 mi Calm Calm - N/A Rain Light Rain
5:35 AM 62.6 °F - 62.6 °F 100% 29.90 in 0.2 mi Calm Calm - N/A Rain Light Rain
5:55 AM 60.8 °F - 60.8 °F 100% 29.89 in 0.2 mi Calm Calm - N/A Fog Fog
6:15 AM 60.8 °F - 60.8 °F 100% 29.89 in 0.2 mi Calm Calm - N/A Fog Fog
6:35 AM 62.6 °F - 62.6 °F 100% 29.90 in 1.8 mi Calm Calm - N/A   Mostly Cloudy
6:45 AM 62.6 °F - 62.6 °F 100% 29.90 in 1.0 mi Calm Calm - N/A   Mostly Cloudy
7:45 AM 64.4 °F - 64.4 °F 100% 29.91 in 2.0 mi Calm Calm - N/A   Mostly Cloudy
8:45 AM 68.0 °F - 66.2 °F 94% 29.91 in 3.0 mi Calm Calm - N/A   Mostly Cloudy
9:45 AM 71.6 °F - 64.4 °F 78% 29.90 in 5.0 mi SSW 4.6 mph - N/A   Mostly Cloudy
10:45 AM 73.4 °F - 64.4 °F 73% 29.90 in 7.0 mi Calm Calm - N/A   Overcast
11:45 AM 73.4 °F - 64.4 °F 73% 29.91 in 10.0 mi SW 8.1 mph - N/A   Overcast
12:45 PM 77.0 °F - 62.6 °F 61% 29.90 in 10.0 mi West 10.4 mph - N/A   Mostly Cloudy
1:45 PM 78.8 °F - 60.8 °F 54% 29.88 in 10.0 mi West 5.8 mph - N/A   Mostly Cloudy
2:45 PM 78.8 °F - 55.4 °F 44% 29.86 in 10.0 mi West 11.5 mph 17.3 mph N/A   Mostly Cloudy
4:45 PM 80.6 °F 80.5 °F 55.4 °F 42% 29.83 in 10.0 mi SW 10.4 mph - N/A   Mostly Cloudy
5:45 PM 80.6 °F 80.3 °F 53.6 °F 39% 29.82 in 10.0 mi SW 9.2 mph 16.1 mph N/A   Mostly Cloudy
6:45 PM 80.6 °F 80.3 °F 53.6 °F 39% 29.82 in 10.0 mi SW 8.1 mph - N/A   Mostly Cloudy
7:45 PM 75.2 °F - 55.4 °F 50% 29.84 in 10.0 mi SW 6.9 mph - N/A   Mostly Cloudy
8:45 PM 71.6 °F - 57.2 °F 60% 29.86 in 10.0 mi WSW 4.6 mph - N/A   Mostly Cloudy
9:45 PM 64.4 °F - 57.2 °F 77% 29.87 in 10.0 mi WSW 4.6 mph - N/A   Mostly Cloudy
10:55 PM 68.0 °F - 59.0 °F 73% 29.89 in 10.0 mi West 4.6 mph - N/A   Overcast
11:15 PM 69.8 °F - 57.2 °F 64% 29.90 in 10.0 mi WNW 3.5 mph - N/A   Overcast
11:35 PM 68.0 °F - 57.2 °F 68% 29.91 in 10.0 mi Calm Calm - N/A   Mostly Cloudy
11:55 PM 68.0 °F - 55.4 °F 64% 29.92 in 10.0 mi NW 6.9 mph - N/A   Clear